| time (UTC) | temp F | wind direction | speed MPH | gust MPH | rain 1hr in | rain 24hr in | rain mn in | humidity % | barometer mb |
| 20260505001220 | 56 | 178 | 1.0 | 2.0 | 0.00 | 0.01 | 0.01 | 53 | 1010.5 |
| 20260505000220 | 55 | 182 | 2.0 | 2.0 | 0.00 | 0.01 | 0.01 | 54 | 1010.5 |
| 20260504235221 | 55 | 48 | 2.0 | 2.0 | 0.00 | 0.01 | 0.01 | 53 | 1010.4 |
| 20260504234220 | 55 | 14 | 2.0 | 2.0 | 0.00 | 0.01 | 0.01 | 54 | 1010.4 |
| 20260504233221 | 55 | 253 | 1.0 | 2.0 | 0.00 | 0.01 | 0.01 | 54 | 1010.3 |
| 20260504232226 | 55 | 231 | 1.0 | 2.0 | 0.01 | 0.01 | 0.01 | 55 | 1010.4 |
| 20260504231221 | 55 | 211 | 2.0 | 3.0 | 0.01 | 0.01 | 0.01 | 56 | 1010.5 |
| 20260504230241 | 55 | 267 | 2.0 | 2.0 | 0.01 | 0.01 | 0.01 | 60 | 1010.4 |
| 20260504225242 | 55 | 203 | 3.0 | 4.0 | 0.01 | 0.01 | 0.01 | 58 | 1010.5 |
| 20260504224222 | 55 | 296 | 2.0 | 3.0 | 0.01 | 0.01 | 0.01 | 57 | 1010.9 |
| 20260504223236 | 56 | 325 | 3.0 | 4.0 | 0.00 | 0.00 | 0.00 | 56 | 1010.8 |
| 20260504222242 | 57 | 316 | 2.0 | 3.0 | 0.00 | 0.00 | 0.00 | 50 | 1010.7 |
| 20260504221222 | 57 | 24 | 3.0 | 3.0 | 0.00 | 0.00 | 0.00 | 49 | 1010.4 |
| 20260504220222 | 58 | 35 | 2.0 | 3.0 | 0.00 | 0.00 | 0.00 | 48 | 1010.2 |
| 20260504215222 | 59 | 22 | 2.0 | 5.0 | 0.00 | 0.00 | 0.00 | 43 | 1009.8 |
| 20260504214238 | 60 | 23 | 2.0 | 4.0 | 0.00 | 0.00 | 0.00 | 40 | 1009.4 |
| 20260504213217 | 62 | 11 | 4.0 | 7.0 | 0.00 | 0.00 | 0.00 | 38 | 1009.1 |
| 20260504212217 | 63 | 6 | 4.0 | 6.0 | 0.00 | 0.00 | 0.00 | 37 | 1009.2 |
| 20260504211217 | 65 | 89 | 2.0 | 5.0 | 0.00 | 0.00 | 0.00 | 33 | 1008.8 |
| 20260504210237 | 66 | 168 | 5.0 | 8.0 | 0.00 | 0.00 | 0.00 | 31 | 1008.7 |
| 20260504205217 | 65 | 13 | 2.0 | 4.0 | 0.00 | 0.00 | 0.00 | 31 | 1008.9 |
| 20260504204217 | 65 | 88 | 4.0 | 6.0 | 0.00 | 0.00 | 0.00 | 33 | 1009.0 |
| 20260504203218 | 65 | 177 | 5.0 | 7.0 | 0.00 | 0.00 | 0.00 | 33 | 1009.2 |
| 20260504202218 | 63 | 158 | 4.0 | 8.0 | 0.00 | 0.00 | 0.00 | 37 | 1009.5 |
| 20260504201218 | 61 | 139 | 4.0 | 7.0 | 0.00 | 0.00 | 0.00 | 37 | 1009.8 |
| 20260504200219 | 60 | 166 | 4.0 | 6.0 | 0.00 | 0.00 | 0.00 | 38 | 1010.1 |
| 20260504195218 | 60 | 225 | 4.0 | 7.0 | 0.00 | 0.00 | 0.00 | 40 | 1010.2 |
| 20260504194218 | 60 | 185 | 4.0 | 7.0 | 0.00 | 0.00 | 0.00 | 40 | 1010.1 |
| 20260504193219 | 61 | 205 | 6.0 | 9.0 | 0.00 | 0.00 | 0.00 | 39 | 1009.9 |
| 20260504192219 | 65 | 178 | 5.0 | 8.0 | 0.00 | 0.00 | 0.00 | 33 | 1009.6 |
| 20260504191219 | 66 | 207 | 4.0 | 5.0 | 0.00 | 0.00 | 0.00 | 26 | 1009.2 |
| 20260504190219 | 67 | 311 | 2.0 | 4.0 | 0.00 | 0.00 | 0.00 | 26 | 1008.8 |
| 20260504185220 | 68 | 289 | 2.0 | 5.0 | 0.00 | 0.00 | 0.00 | 25 | 1008.7 |
| 20260504184219 | 70 | 289 | 3.0 | 6.0 | 0.00 | 0.00 | 0.00 | 25 | 1008.7 |
| 20260504183240 | 70 | 292 | 3.0 | 6.0 | 0.00 | 0.00 | 0.00 | 23 | 1008.8 |
| 20260504182220 | 69 | 301 | 3.0 | 4.0 | 0.00 | 0.00 | 0.00 | 23 | 1008.8 |
| 20260504181300 | 68 | 307 | 4.0 | 6.0 | 0.00 | 0.00 | 0.00 | 25 | 1009.0 |
| 20260504180300 | 68 | 352 | 2.0 | 4.0 | 0.00 | 0.00 | 0.00 | 25 | 1009.1 |
| 20260504175217 | 68 | 292 | 4.0 | 8.0 | 0.00 | 0.00 | 0.00 | 27 | 1009.2 |
| 20260504174220 | 67 | 292 | 5.0 | 8.0 | 0.00 | 0.00 | 0.00 | 28 | 1009.5 |
| 20260504173220 | 66 | 299 | 3.0 | 6.0 | 0.00 | 0.00 | 0.00 | 29 | 1009.7 |
| 20260504172220 | 66 | 331 | 4.0 | 6.0 | 0.00 | 0.00 | 0.00 | 29 | 1009.8 |
| 20260504171221 | 65 | 258 | 2.0 | 5.0 | 0.00 | 0.00 | 0.00 | 29 | 1009.8 |
| 20260504170218 | 65 | 295 | 3.0 | 7.0 | 0.00 | 0.00 | 0.00 | 29 | 1009.9 |
| 20260504160228 | 62 | 262 | 3.0 | 4.0 | 0.00 | 0.00 | 0.00 | 31 | 1010.6 |
| 20260504150217 | 60 | 268 | 2.0 | 3.0 | 0.00 | 0.00 | 0.00 | 31 | 1010.6 |
| 20260504141218 | 59 | 305 | 3.0 | 5.0 | 0.00 | 0.00 | 0.00 | 31 | 1010.9 |
| 20260504140218 | 59 | 295 | 3.0 | 3.0 | 0.00 | 0.00 | 0.00 | 31 | 1010.9 |
| 20260504130216 | 54 | 284 | 2.0 | 2.0 | 0.00 | 0.00 | 0.00 | 28 | 1010.9 |
| 20260504120219 | 52 | 274 | 4.0 | 5.0 | 0.00 | 0.00 | 0.00 | 29 | 1010.2 |
| 20260504110228 | 49 | 293 | 3.0 | 5.0 | 0.00 | 0.00 | 0.00 | 31 | 1010.6 |
| 20260504100227 | 47 | 304 | 3.0 | 5.0 | 0.00 | 0.00 | 0.00 | 41 | 1011.1 |
| 20260504081227 | 50 | 193 | 1.0 | 1.0 | 0.00 | 0.00 | 0.00 | 36 | 1011.7 |
| 20260504080225 | 48 | 299 | 3.0 | 3.0 | 0.00 | 0.00 | 0.00 | 40 | 1011.7 |
| 20260504070226 | 52 | 272 | 2.0 | 3.0 | 0.00 | 0.00 | 0.00 | 39 | 1012.3 |
| 20260504060222 | 55 | 267 | 3.0 | 4.0 | 0.00 | 0.00 | 0.00 | 34 | 1012.4 |
| 20260504050220 | 58 | 204 | 1.0 | 2.0 | 0.00 | 0.00 | 0.00 | 29 | 1012.3 |
| 20260504045223 | 58 | 186 | 3.0 | 4.0 | 0.00 | 0.00 | 0.00 | 30 | 1012.4 |
| 20260504044223 | 58 | 228 | 1.0 | 2.0 | 0.00 | 0.00 | 0.00 | 29 | 1012.4 |
| 20260504043223 | 58 | 211 | 1.0 | 2.0 | 0.00 | 0.00 | 0.00 | 31 | 1012.4 |
| 20260504042223 | 58 | 230 | 1.0 | 1.0 | 0.00 | 0.00 | 0.00 | 30 | 1012.4 |
| 20260504041224 | 59 | 276 | 1.0 | 2.0 | 0.00 | 0.00 | 0.00 | 30 | 1012.5 |
| 20260504040224 | 60 | 235 | 1.0 | 1.0 | 0.00 | 0.00 | 0.00 | 29 | 1012.6 |
| 20260504035305 | 60 | 277 | 3.0 | 4.0 | 0.00 | 0.00 | 0.00 | 30 | 1012.6 |
| 20260504034224 | 60 | 298 | 2.0 | 3.0 | 0.00 | 0.00 | 0.00 | 30 | 1012.7 |
| 20260504033224 | 60 | 286 | 3.0 | 4.0 | 0.00 | 0.00 | 0.00 | 29 | 1012.7 |
| 20260504032224 | 60 | 293 | 3.0 | 4.0 | 0.00 | 0.00 | 0.00 | 29 | 1012.8 |
| 20260504031221 | 61 | 290 | 4.0 | 6.0 | 0.00 | 0.00 | 0.00 | 29 | 1012.7 |
| 20260504030222 | 61 | 288 | 3.0 | 5.0 | 0.00 | 0.00 | 0.00 | 29 | 1012.6 |
| 20260504025228 | 61 | 297 | 2.0 | 3.0 | 0.00 | 0.00 | 0.00 | 28 | 1012.5 |
| 20260504024231 | 61 | 264 | 2.0 | 3.0 | 0.00 | 0.00 | 0.00 | 28 | 1012.5 |
| 20260504023248 | 62 | 282 | 3.0 | 5.0 | 0.00 | 0.00 | 0.00 | 27 | 1012.5 |
| 20260504022233 | 62 | 238 | 3.0 | 5.0 | 0.00 | 0.00 | 0.00 | 28 | 1012.5 |
| 20260504021228 | 63 | 224 | 4.0 | 5.0 | 0.00 | 0.00 | 0.00 | 26 | 1012.5 |
| 20260504020228 | 63 | 200 | 3.0 | 8.0 | 0.00 | 0.00 | 0.00 | 25 | 1012.4 |
| 20260504015232 | 63 | 289 | 2.0 | 3.0 | 0.00 | 0.00 | 0.00 | 26 | 1012.3 |
| 20260504014231 | 63 | 288 | 3.0 | 4.0 | 0.00 | 0.00 | 0.00 | 26 | 1012.2 |
| 20260504013252 | 63 | 241 | 2.0 | 3.0 | 0.00 | 0.00 | 0.00 | 26 | 1012.1 |
| 20260504012232 | 64 | 278 | 3.0 | 3.0 | 0.00 | 0.00 | 0.00 | 26 | 1012.1 |
| 20260504011232 | 65 | 7 | 2.0 | 3.0 | 0.00 | 0.00 | 0.00 | 25 | 1012.1 |
| 20260504010223 | 65 | 22 | 3.0 | 6.0 | 0.00 | 0.00 | 0.00 | 25 | 1012.2 |
| 20260504005223 | 65 | 327 | 4.0 | 7.0 | 0.00 | 0.00 | 0.00 | 25 | 1012.2 |
| 20260504004224 | 64 | 15 | 2.0 | 3.0 | 0.00 | 0.00 | 0.00 | 26 | 1012.2 |
| 20260504003313 | 64 | 289 | 1.0 | 3.0 | 0.00 | 0.00 | 0.00 | 26 | 1012.3 |
| 20260504002225 | 64 | 341 | 2.0 | 4.0 | 0.00 | 0.00 | 0.00 | 26 | 1012.3 |